When you browse on this site, cookies collect data to enhance your experience and personalize the content and advertising you see.
Visit our Privacy Policy to learn more. By continuing to use the site, you agree to this use of cookies and data.
  • In Italy
  • List of Countries
  • For 7 days
  • Water Temperature
  • Satellite Maps
  • Weather Map
  • Weather Widgets
  • user-avatar
    Login

    Hourly Weather Hasselt

    Today, 20 February, Wednesday

    Time Temperature Precipitation Wind Pressure Humidity
    00:00 +5°C° 0 mm 2 mps 762 mmHg 83%
    01:00 +5°C° 0 mm 2 mps 763 mmHg 84%
    02:00 +4°C° 0 mm 3 mps 763 mmHg 84%
    03:00 +3°C° 0 mm 3 mps 763 mmHg 85%
    04:00 +3°C° 0 mm 3 mps 763 mmHg 85%
    05:00 +4°C° 0 mm 3 mps 763 mmHg 86%
    06:00 +4°C° 0 mm 3 mps 763 mmHg 87%
    07:00 +4°C° 0 mm 3 mps 763 mmHg 85%
    08:00 +5°C° 0 mm 3 mps 763 mmHg 83%
    09:00 +6°C° 0 mm 4 mps 764 mmHg 81%
    10:00 +7°C° 0 mm 4 mps 764 mmHg 75%
    11:00 +10°C° 0 mm 4 mps 764 mmHg 69%
    12:00 +11°C° 0 mm 4 mps 764 mmHg 63%
    13:00 +11°C° 0 mm 4 mps 764 mmHg 61%
    14:00 +11°C° 0 mm 4 mps 764 mmHg 59%
    15:00 +12°C° 0 mm 3 mps 763 mmHg 58%
    16:00 +10°C° 0 mm 3 mps 764 mmHg 64%
    17:00 +9°C° 0 mm 2 mps 764 mmHg 71%
    18:00 +8°C° 0 mm 2 mps 764 mmHg 77%
    19:00 +7°C° 0 mm 2 mps 765 mmHg 81%
    20:00 +7°C° 0 mm 2 mps 765 mmHg 84%
    21:00 +6°C° 0 mm 2 mps 765 mmHg 87%
    22:00 +6°C° 0 mm 2 mps 765 mmHg 88%
    23:00 +6°C° 0 mm 2 mps 766 mmHg 89%

    Tomorrow, 21 February, Thursday

    Time Temperature Precipitation Wind Pressure Humidity
    00:00 +5°C° 0 mm 3 mps 766 mmHg 90%
    01:00 +5°C° 0 mm 2 mps 766 mmHg 91%
    02:00 +5°C° 0 mm 2 mps 766 mmHg 91%
    03:00 +5°C° 0 mm 2 mps 766 mmHg 92%
    04:00 +5°C° 0 mm 2 mps 766 mmHg 93%
    05:00 +5°C° 0 mm 2 mps 766 mmHg 93%
    06:00 +5°C° 0 mm 2 mps 766 mmHg 94%
    07:00 +6°C° 0 mm 2 mps 767 mmHg 90%
    08:00 +7°C° 0 mm 3 mps 767 mmHg 87%
    09:00 +8°C° 0 mm 3 mps 767 mmHg 84%
    10:00 +9°C° 0 mm 3 mps 767 mmHg 77%
    11:00 +11°C° 0 mm 3 mps 768 mmHg 71%
    12:00 +12°C° 0 mm 3 mps 768 mmHg 64%
    13:00 +12°C° 0 mm 3 mps 768 mmHg 63%
    14:00 +13°C° 0 mm 3 mps 768 mmHg 62%
    15:00 +13°C° 0 mm 3 mps 767 mmHg 61%
    16:00 +13°C° 0 mm 2 mps 768 mmHg 67%
    17:00 +12°C° 0 mm 2 mps 768 mmHg 72%
    18:00 +11°C° 0 mm 1 mps 769 mmHg 77%
    19:00 +10°C° 0 mm 1 mps 769 mmHg 80%
    20:00 +9°C° 0 mm 1 mps 769 mmHg 82%
    21:00 +9°C° 0 mm 1 mps 770 mmHg 85%
    22:00 +9°C° 0 mm 1 mps 770 mmHg 86%
    23:00 +8°C° 0 mm 1 mps 770 mmHg 88%

    Day after tomorrow, 22 February, Friday

    Time Temperature Precipitation Wind Pressure Humidity
    00:00 +8°C° 0 mm 1 mps 770 mmHg 90%
    01:00 +8°C° 0 mm 1 mps 771 mmHg 90%
    02:00 +7°C° 0 mm 1 mps 771 mmHg 91%
    03:00 +7°C° 0 mm 1 mps 771 mmHg 92%
    04:00 +7°C° 0 mm 1 mps 771 mmHg 92%
    05:00 +7°C° 0 mm 1 mps 771 mmHg 93%
    06:00 +7°C° 0 mm 1 mps 772 mmHg 93%
    07:00 +8°C° 0 mm 1 mps 772 mmHg 89%
    08:00 +9°C° 0 mm 1 mps 772 mmHg 85%
    09:00 +10°C° 0 mm 1 mps 772 mmHg 81%
    10:00 +11°C° 0 mm 1 mps 773 mmHg 75%
    11:00 +12°C° 0 mm 0 mps 773 mmHg 69%
    12:00 +14°C° 0 mm 0 mps 773 mmHg 63%
    13:00 +14°C° 0 mm 0 mps 773 mmHg 62%
    14:00 +15°C° 0 mm 1 mps 772 mmHg 61%
    15:00 +15°C° 0 mm 1 mps 772 mmHg 60%
    16:00 +14°C° 0 mm 1 mps 772 mmHg 66%
    17:00 +12°C° 0 mm 2 mps 772 mmHg 72%
    18:00 +10°C° 0 mm 2 mps 772 mmHg 79%
    19:00 +9°C° 0 mm 2 mps 773 mmHg 81%
    20:00 +9°C° 0 mm 2 mps 773 mmHg 82%
    21:00 +8°C° 0 mm 2 mps 773 mmHg 84%
    22:00 +8°C° 0 mm 2 mps 773 mmHg 85%
    23:00 +8°C° 0 mm 2 mps 773 mmHg 86%

    23 February, Saturday

    Time Temperature Precipitation Wind Pressure Humidity
    00:00 +8°C° 0 mm 1 mps 773 mmHg 87%
    01:00 +8°C° 0 mm 1 mps 773 mmHg 88%
    02:00 +7°C° 0 mm 2 mps 772 mmHg 90%
    03:00 +7°C° 0 mm 2 mps 772 mmHg 91%
    04:00 +7°C° 0 mm 2 mps 772 mmHg 91%
    05:00 +6°C° 0 mm 2 mps 772 mmHg 92%
    06:00 +6°C° 0 mm 2 mps 772 mmHg 92%
    07:00 +7°C° 0 mm 2 mps 772 mmHg 88%
    08:00 +8°C° 0 mm 2 mps 772 mmHg 83%
    09:00 +9°C° 0 mm 3 mps 772 mmHg 78%
    10:00 +12°C° 0 mm 2 mps 772 mmHg 71%
    11:00 +13°C° 0 mm 2 mps 772 mmHg 64%
    12:00 +15°C° 0 mm 2 mps 772 mmHg 56%
    13:00 +15°C° 0 mm 2 mps 771 mmHg 54%
    14:00 +15°C° 0 mm 2 mps 771 mmHg 53%
    15:00 +16°C° 0 mm 2 mps 771 mmHg 51%
    16:00 +14°C° 0 mm 2 mps 771 mmHg 56%
    17:00 +12°C° 0 mm 2 mps 771 mmHg 61%
    18:00 +10°C° 0 mm 2 mps 771 mmHg 65%
    19:00 +9°C° 0 mm 2 mps 771 mmHg 66%
    20:00 +8°C° 0 mm 2 mps 771 mmHg 68%
    21:00 +7°C° 0 mm 2 mps 772 mmHg 69%
    22:00 +7°C° 0 mm 2 mps 772 mmHg 69%
    23:00 +6°C° 0 mm 2 mps 772 mmHg 70%

    24 February, Sunday

    Time Temperature Precipitation Wind Pressure Humidity
    00:00 +7°C° 0 mm 1 mps 772 mmHg 71%
    01:00 +6°C° 0 mm 1 mps 772 mmHg 72%
    02:00 +6°C° 0 mm 1 mps 772 mmHg 73%
    03:00 +5°C° 0 mm 0 mps 771 mmHg 74%
    04:00 +5°C° 0 mm 0 mps 771 mmHg 73%
    05:00 +4°C° 0 mm 0 mps 772 mmHg 72%
    06:00 +4°C° 0 mm 0 mps 772 mmHg 72%
    07:00 +5°C° 0 mm 0 mps 772 mmHg 66%
    08:00 +7°C° 0 mm 0 mps 772 mmHg 61%
    09:00 +8°C° 0 mm 0 mps 772 mmHg 56%
    10:00 +10°C° 0 mm 0 mps 772 mmHg 51%
    11:00 +11°C° 0 mm 0 mps 772 mmHg 47%
    12:00 +13°C° 0 mm 0 mps 772 mmHg 43%
    13:00 +13°C° 0 mm 0 mps 772 mmHg 42%
    14:00 +14°C° 0 mm 1 mps 771 mmHg 42%
    15:00 +14°C° 0 mm 1 mps 771 mmHg 42%
    16:00 +13°C° 0 mm 1 mps 771 mmHg 47%
    17:00 +11°C° 0 mm 1 mps 772 mmHg 53%
    18:00 +10°C° 0 mm 1 mps 772 mmHg 59%
    19:00 +9°C° 0 mm 1 mps 772 mmHg 62%
    20:00 +9°C° 0 mm 1 mps 772 mmHg 65%
    21:00 +8°C° 0 mm 1 mps 772 mmHg 68%
    22:00 +8°C° 0 mm 1 mps 772 mmHg 70%
    23:00 +6°C° 0 mm 0 mps 773 mmHg 72%

    25 February, Monday

    Time Temperature Precipitation Wind Pressure Humidity
    00:00 +6°C° 0 mm 0 mps 773 mmHg 75%
    01:00 +7°C° 0 mm 1 mps 773 mmHg 78%
    02:00 +6°C° 0 mm 1 mps 773 mmHg 81%
    03:00 +6°C° 0 mm 1 mps 773 mmHg 84%
    04:00 +6°C° 0 mm 1 mps 773 mmHg 85%
    05:00 +6°C° 0 mm 1 mps 773 mmHg 86%
    06:00 +5°C° 0 mm 1 mps 772 mmHg 87%
    07:00 +7°C° 0 mm 1 mps 773 mmHg 82%
    08:00 +7°C° 0 mm 2 mps 773 mmHg 76%
    09:00 +8°C° 0 mm 2 mps 773 mmHg 71%
    10:00 +10°C° 0 mm 2 mps 773 mmHg 66%
    11:00 +12°C° 0 mm 2 mps 773 mmHg 62%
    12:00 +14°C° 0 mm 2 mps 773 mmHg 57%
    13:00 +13°C° 0 mm 3 mps 773 mmHg 57%
    14:00 +13°C° 0 mm 3 mps 773 mmHg 56%
    15:00 +14°C° 0 mm 3 mps 772 mmHg 56%
    16:00 +12°C° 0 mm 3 mps 772 mmHg 62%
    17:00 +12°C° 0 mm 2 mps 772 mmHg 68%
    18:00 +9°C° 0 mm 2 mps 773 mmHg 75%
    19:00 +8°C° 0 mm 2 mps 773 mmHg 77%
    20:00 +8°C° 0 mm 2 mps 772 mmHg 79%
    21:00 +7°C° 0 mm 2 mps 772 mmHg 81%
    22:00 +7°C° 0 mm 2 mps 772 mmHg 81%
    23:00 +7°C° 0 mm 2 mps 772 mmHg 81%
    Show more